Torna al catalogo

SL-12 R/B(2)

AttivoGEO
NORAD 21762·ROCKET BODY·🇷🇺 Russia

Lanciato Oct 23, 1991 da Baikonur Cosmodrome

Loading…

TLE

AggiornatoSource: Space-Track

Epoca: Sep 12, 2026, 21:02 UTC

1 21762U 91074D   26255.87686016  .00000020  00000-0  00000-0 0  9993
2 21762  13.3858 340.7377 0003050 244.1442 105.4714  0.99706500120548

Traccia SL-12 R/B(2) in tempo reale con AllMySat

Download on the App Store